Weather reports worldwide

Advertisment
Seehausen, Germany (10261): temperature & dewpoint: 06.11.2019 17:00:00 - 12.11.2019 17:00:00 (CET)Seehausen, Germany (10261): temperature 5cm & temperature -5cm: 06.11.2019 17:00:00 - 12.11.2019 17:00:00 (CET)Seehausen, Germany (10261): temperature -20cm & temperature -100cm: 06.11.2019 17:00:00 - 12.11.2019 17:00:00 (CET)Seehausen, Germany (10261): wind speed & gusts: 06.11.2019 17:00:00 - 12.11.2019 17:00:00 (CET)Seehausen, Germany (10261): wind direction: 06.11.2019 17:00:00 - 12.11.2019 17:00:00 (CET)Seehausen, Germany (10261): reduced air pressure: 06.11.2019 17:00:00 - 12.11.2019 17:00:00 (CET)Seehausen, Germany (10261): visibility: 06.11.2019 17:00:00 - 12.11.2019 17:00:00 (CET)Seehausen, Germany (10261): sunshine duration: 06.11.2019 17:00:00 - 12.11.2019 17:00:00 (CET)Seehausen, Germany (10261): precipitation: 06.11.2019 17:00:00 - 12.11.2019 17:00:00 (CET)
Date & Time tt [°C] td [°C] tt 5cm [°C] tt -5cm [°C] tt -20cm [°C] tt -100cm [°C] ff [km/h] ff [kn] fx [km/h] fx [kn] dd ppp [hPa] vv [km] sd [min] rr [mm]
12.11.2019 17:00:00 5,9 1,8 4,1 4,3 5,2 9,4 13 7 29 16 SSE 1003,7 57 0 0,0
12.11.2019 16:00:00 7,1 1,7 6,3 5,0 5,2 9,4 16 9 38 20 S 1004,0 63 4 0,0
12.11.2019 15:00:00 7,7 1,6 7,1 5,3 5,1 9,4 13 7 26 14 S 1004,1 70 29 0,0
12.11.2019 14:00:00 8,6 2,2 7,1 5,9 4,9 9,5 11 6 29 16 S 1003,6 39 58 0,0
12.11.2019 13:00:00 8,4 1,4 9,2 7,1 4,5 9,5 14 8 34 18 S 1004,3 37 60 0,0
12.11.2019 12:00:00 8,2 1,9 9,8 6,3 4,1 9,5 13 7 30 16 SSW 1004,7 41 60 0,0
12.11.2019 11:00:00 7,0 1,4 7,9 4,7 3,9 9,5 13 7 30 16 S 1005,1 39 60 0,0
12.11.2019 10:00:00 5,7 1,2 5,9 2,8 3,8 9,5 13 7 23 12 S 1005,0 25 31 0,0
12.11.2019 09:00:00 3,7 1,0 2,5 1,7 3,9 9,6 11 6 19 11 S 1005,2 15 20 0,0
12.11.2019 08:00:00 2,8 0,7 1,0 1,9 3,9 9,6 8 4 21 11 SSE 1004,9 11 0 0,0
12.11.2019 07:00:00 3,5 1,0 2,5 2,4 3,9 9,6 12 6 22 12 S 1004,4 12 0 0,0
12.11.2019 06:00:00 3,4 0,9 2,8 2,3 3,9 9,6 12 7 20 11 S 1004,0 12 0 0,0
12.11.2019 05:00:00 2,6 0,6 2,3 2,0 3,9 9,6 11 6 19 11 SSE 1004,0 11 0 0,0
12.11.2019 04:00:00 2,0 0,4 1,3 1,6 3,9 9,6 10 6 18 10 SSE 1004,0 11 0 0,0
12.11.2019 03:00:00 1,9 0,2 1,2 1,6 4,0 9,7 11 6 20 11 SSE 1004,3 11 0 0,0
12.11.2019 02:00:00 1,4 0,1 0,4 1,4 4,1 9,7 9 5 18 10 SSE 1004,4 10 0 0,0
12.11.2019 01:00:00 1,7 0,3 0,7 1,7 4,2 9,7 8 4 16 8 SSE 1004,3 9 0 0,0
12.11.2019 00:00:00 2,1 0,5 0,9 2,0 4,3 9,7 10 5 22 12 SSE 1004,7 10 0 0,0
11.11.2019 23:00:00 2,6 0,6 2,0 2,4 4,3 9,7 14 8 28 15 SSE 1004,9 10 0 0,0
11.11.2019 22:00:00 2,8 0,6 2,2 2,5 4,4 9,8 15 8 25 13 SSE 1005,1 11 0 0,0
11.11.2019 21:00:00 2,5 0,7 2,0 2,3 4,4 9,8 13 7 21 11 SSE 1005,5 9 0 0,0
11.11.2019 20:00:00 2,1 0,7 1,6 2,3 4,5 9,8 12 7 23 13 SSE 1006,0 6 0 0,0
11.11.2019 19:00:00 1,9 0,5 0,9 2,3 4,6 9,8 9 5 28 15 SE 1006,4 7 0 0,0
11.11.2019 18:00:00 3,0 0,6 1,9 3,3 4,6 9,9 13 7 34 18 SSE 1007,1 10 0 0,0
11.11.2019 17:00:00 3,1 1,3 3,0 3,5 4,6 9,9 15 8 38 20 SSE 1007,3 9 0 0,0
11.11.2019 16:00:00 2,7 0,5 2,4 4,0 4,5 9,9 24 13 36 20 SE 1008,0 10 0 0,0
11.11.2019 15:00:00 3,6 1,4 3,9 4,4 4,3 9,9 16 9 24 13 SE 1008,9 12 9 0,0
11.11.2019 14:00:00 3,2 1,8 3,6 4,3 4,1 9,9 11 6 29 15 SSE 1009,7 9 0 0,0
11.11.2019 13:00:00 2,7 1,4 3,4 3,8 3,9 10,0 18 10 31 17 SE 1010,2 9 0 0,0
11.11.2019 12:00:00 1,9 1,7 2,7 2,9 3,7 10,0 10 6 21 11 SE 1010,9 4,4 0 0,0
11.11.2019 11:00:00 0,6 0,6 1,3 1,7 3,7 10,0 10 5 22 12 SSE 1011,6 1,1 0 0,0
11.11.2019 10:00:00 -0,2 -0,2 0,0 1,1 3,7 10,0 11 6 18 10 SSE 1012,1 1,1 0 0,0
11.11.2019 09:00:00 -0,6 -0,6 -0,3 1,0 3,8 10,0 13 7 21 11 SSE 1012,4 0,2 0 0,0
11.11.2019 08:00:00 -1,1 -1,1 -0,8 0,9 3,8 10,0 12 6 18 10 SE 1013,0 0,2 0 0,0
11.11.2019 07:00:00 -1,1 -1,1 -0,8 0,9 3,9 10,1 6 3 18 10 S 1013,9 0,3 0 0,0
11.11.2019 06:00:00 -1,3 -1,3 -1,0 0,9 4,0 10,1 10 6 15 8 SE 1013,8 0,1 0 0,0
11.11.2019 05:00:00 -1,6 -1,8 -1,3 0,9 4,1 10,1 8 4 12 6 ESE 1014,2 0,2 0 0,0
11.11.2019 04:00:00 -1,5 -1,9 -1,6 1,0 4,2 10,1 5 3 9 5 E 1014,6 6 0 0,0
11.11.2019 03:00:00 -1,7 -2,0 -2,3 1,0 4,3 10,1 8 4 12 6 SE 1014,7 6 0 0,0
11.11.2019 02:00:00 -1,2 -1,5 -1,5 1,1 4,4 10,1 8 4 13 7 SE 1014,5 4,8 0 0,0
11.11.2019 01:00:00 -0,9 -1,3 -2,1 1,2 4,6 10,1 2 1 11 6 SSE 1014,8 0,9 0 0,0
11.11.2019 00:00:00 -0,7 -1,0 -1,5 1,3 4,7 10,2 4 2 9 5 SSE 1015,2 0,4 0 0,0
10.11.2019 23:00:00 -0,8 -1,0 -1,3 1,4 4,9 10,2 4 2 7 4 SE 1015,3 0,2 0 0,0
10.11.2019 22:00:00 -0,8 -1,2 -2,2 1,4 5,1 10,2 4 2 7 4 SE 1015,7 3,5 0 0,0
10.11.2019 21:00:00 0,3 0,1 -1,5 1,4 5,4 10,2 6 4 11 6 SSE 1015,5 2,6 0 0,0
10.11.2019 20:00:00 0,1 -0,2 -1,5 1,6 5,7 10,2 7 4 9 5 SSE 1015,5 4,3 0 0,0
10.11.2019 19:00:00 0,5 -0,1 -0,1 2,3 6,0 10,2 4 2 9 5 SSW 1015,6 6 0 0,0
10.11.2019 18:00:00 1,6 0,9 -0,4 3,1 6,2 10,2 3 2 8 5 S 1015,5 8 0 0,0
10.11.2019 17:00:00 3,3 2,4 0,6 4,1 6,4 10,3 3 2 6 3 SSW 1015,2 12 5 0,0
10.11.2019 16:00:00 5,9 3,3 2,8 5,3 6,5 10,3 4 2 8 5 WSW 1014,8 16 55 0,0
10.11.2019 15:00:00 7,7 2,6 6,2 6,3 6,4 10,3 4 2 10 5 SSW 1014,3 23 60 0,0
10.11.2019 14:00:00 8,5 2,0 6,5 7,2 6,1 10,3 2 1 7 4 S 1014,0 34 60 0,0
10.11.2019 13:00:00 7,4 2,9 9,5 8,5 5,6 10,3 5 3 9 5 NNW 1013,8 27 60 0,0
10.11.2019 12:00:00 6,5 3,0 8,5 7,3 5,2 10,3 7 4 9 5 NNW 1013,7 24 60 0,0
10.11.2019 11:00:00 5,4 2,4 7,1 5,3 4,9 10,3 8 4 10 6 W 1013,8 24 60 0,0
10.11.2019 10:00:00 2,6 1,2 3,8 2,6 4,9 10,3 2 1 4 2 NE 1013,5 4,5 47 0,0
10.11.2019 09:00:00 0,3 -0,5 -0,5 1,5 5,0 10,4 3 2 5 3 NNW 1013,2 4,0 40 0,0
10.11.2019 08:00:00 -0,6 -1,2 -1,4 1,5 5,2 10,4 2 1 6 3 WSW 1012,7 4,6 0 0,0
10.11.2019 07:00:00 -0,3 -0,5 -0,8 1,6 5,4 10,4 2 1 5 3 SSW 1012,1 1,4 0 0,0
10.11.2019 06:00:00 -0,6 -1,1 -0,5 1,6 5,6 10,4 2 1 6 3 WNW 1011,4 0,3 0 0,0
10.11.2019 05:00:00 0,6 0,5 -1,4 2,0 5,9 10,4 3 1 7 4 S 1010,9 1,2 0 0,0
10.11.2019 04:00:00 1,2 0,9 -0,8 2,8 6,1 10,4 3 2 8 4 SSW 1010,5 3,2 0 0,0
10.11.2019 03:00:00 2,2 1,9 0,3 3,2 6,2 10,4 4 2 6 3 S 1010,3 0,2 0 0,0
10.11.2019 02:00:00 3,5 3,1 2,4 4,1 6,3 10,4 3 2 9 5 ESE 1010,0 3,1 0 0,0
10.11.2019 01:00:00 3,7 3,5 3,3 4,0 6,4 10,4 3 2 8 4 S 1009,8 3,5 0 0,0
10.11.2019 00:00:00 3,7 3,1 1,6 4,1 6,5 10,4 5 3 13 7 SW 1009,5 4,3 0 0,0
09.11.2019 23:00:00 4,7 4,2 3,8 4,3 6,6 10,4 8 5 12 6 SW 1009,3 8 0 0,0
09.11.2019 22:00:00 2,9 2,6 2,8 3,8 6,8 10,4 2 1 10 5 SW 1009,0 5 0 0,0
09.11.2019 21:00:00 3,7 3,3 1,7 3,5 7,1 10,4 8 4 12 7 SSW 1008,6 5 0 0,0
09.11.2019 20:00:00 4,1 3,6 2,5 4,1 7,3 10,4 8 4 14 7 SSW 1008,4 10 0 0,0
09.11.2019 19:00:00 4,6 4,0 3,2 4,9 7,6 10,4 8 4 14 8 SSW 1008,4 13 0 0,0
09.11.2019 18:00:00 4,7 4,2 2,9 5,5 7,8 10,5 7 4 11 6 SW 1008,3 8 0 0,0
09.11.2019 17:00:00 5,9 5,2 4,7 6,7 7,8 10,5 5 3 10 5 SW 1008,0 9 0 0,0
09.11.2019 16:00:00 7,0 5,8 6,6 7,7 7,8 10,5 9 5 20 11 WSW 1007,7 28 4 0,0
09.11.2019 15:00:00 7,1 5,0 7,1 7,8 7,7 10,5 15 8 22 12 W 1007,4 20 0 0,0
09.11.2019 14:00:00 7,4 4,7 7,4 7,9 7,6 10,5 13 7 22 12 W 1006,9 70 0 0,0
09.11.2019 13:00:00 7,5 5,0 7,6 8,0 7,5 10,5 13 7 20 11 W 1006,5 63 3 0,0
09.11.2019 12:00:00 6,8 5,3 7,0 7,2 7,4 10,5 11 6 21 11 W 1006,7 52 0 0,0
09.11.2019 11:00:00 6,2 5,0 6,1 6,9 7,3 10,5 14 8 19 11 W 1007,1 29 0 0,3
09.11.2019 10:00:00 6,0 5,0 6,0 6,5 7,3 10,5 10 6 19 10 W 1007,2 19 0 0,2
09.11.2019 09:00:00 6,0 5,0 5,7 6,4 7,4 10,5 14 8 23 12 W 1006,8 14 0 0,0
09.11.2019 08:00:00 6,1 5,3 5,8 6,4 7,4 10,5 16 9 31 17 WNW 1006,5 8 0 0,5
09.11.2019 07:00:00 6,1 5,5 6,0 6,3 7,4 10,5 18 10 24 13 WNW 1006,3 3,6 0 0,1
09.11.2019 06:00:00 6,0 5,2 5,9 6,3 7,4 10,5 13 7 22 12 WNW 1006,0 8 0 0,0
09.11.2019 05:00:00 6,0 5,3 5,9 6,3 7,4 10,6 11 6 19 10 WNW 1006,1 9 0 0,0
09.11.2019 04:00:00 5,9 5,2 5,7 6,2 7,5 10,6 10 6 14 8 WNW 1006,0 10 0 0,0
09.11.2019 03:00:00 6,1 5,4 5,8 6,4 7,5 10,6 9 5 14 8 NW 1006,0 9 0 0,0
09.11.2019 02:00:00 6,2 5,5 6,0 6,5 7,5 10,6 9 5 15 8 NW 1006,6 10 0 0,0
09.11.2019 01:00:00 6,3 5,5 6,0 6,5 7,6 10,6 9 5 13 7 NW 1006,6 14 0 0,0
09.11.2019 00:00:00 6,3 5,6 6,0 6,5 7,6 10,6 10 5 14 8 NW 1006,8 14 0 0,0
08.11.2019 23:00:00 6,4 5,7 6,1 6,6 7,6 10,6 10 5 13 7 NNW 1007,1 14 0 0,0
08.11.2019 22:00:00 6,4 5,7 6,1 6,7 7,7 10,6 9 5 12 7 NNW 1007,6 9 0 0,0
08.11.2019 21:00:00 6,6 6,0 6,2 6,8 7,7 10,6 10 5 16 9 NNW 1007,6 12 0 0,6
08.11.2019 20:00:00 6,6 5,9 6,3 6,9 7,8 10,6 6 3 7 4 N 1007,7 8 0 0,4
08.11.2019 19:00:00 6,8 5,9 6,2 7,0 7,8 10,7 3 2 10 5 E 1007,6 10 0 0,0
08.11.2019 18:00:00 6,9 5,8 6,5 7,1 7,9 10,7 8 5 11 6 NNW 1007,4 22 0 0,0
08.11.2019 17:00:00 7,1 5,9 6,5 7,4 7,9 10,7 6 3 8 4 NNW 1007,9 26 0 0,0
08.11.2019 16:00:00 7,6 5,9 7,2 8,0 7,8 10,7 5 3 9 5 NNE 1007,8 41 0 0,0
08.11.2019 15:00:00 8,3 6,3 8,2 8,5 7,6 10,7 6 3 8 4 ENE 1007,8 41 0 0,0
08.11.2019 14:00:00 8,2 6,0 8,5 8,9 7,3 10,7 5 3 8 5 NE 1007,8 27 0 0,0
08.11.2019 13:00:00 7,9 5,9 8,4 8,7 7,0 10,7 4 2 7 4 N 1008,0 27 0 0,0
08.11.2019 12:00:00 7,3 5,4 7,3 7,9 6,6 10,7 2 1 6 3 ENE 1008,2 20 3 0,0
08.11.2019 11:00:00 5,9 4,7 5,9 6,2 6,5 10,7 4 2 8 4 ESE 1008,7 18 0 0,0
08.11.2019 10:00:00 4,8 4,1 4,9 4,9 6,4 10,7 6 3 10 5 SE 1008,7 15 0 0,0
08.11.2019 09:00:00 3,4 3,1 2,9 3,7 6,5 10,7 3 2 8 4 SE 1008,1 10 1 0,0
08.11.2019 08:00:00 2,1 1,8 1,2 3,2 6,8 10,7 3 2 9 5 S 1007,8 9 0 0,0
08.11.2019 07:00:00 2,4 2,1 1,3 3,3 7,0 10,7 7 4 9 5 ESE 1007,2 9 0 0,0
08.11.2019 06:00:00 2,7 2,1 0,7 3,7 7,2 10,7 5 3 11 6 S 1006,5 12 0 0,0
08.11.2019 05:00:00 4,9 3,6 3,4 4,5 7,5 10,8 9 5 19 10 S 1006,6 55 0 0,0
08.11.2019 04:00:00 5,8 4,2 4,4 5,0 7,6 10,8 10 5 17 9 SSW 1006,1 70 0 0,0
08.11.2019 03:00:00 6,4 4,9 4,8 5,5 7,8 10,8 9 5 16 9 SSW 1005,9 58 0 0,0
08.11.2019 02:00:00 6,8 5,3 5,4 5,6 8,0 10,8 9 5 16 9 SSW 1005,2 44 0 0,0
08.11.2019 01:00:00 7,1 5,8 5,6 6,1 8,1 10,8 8 5 14 8 SSW 1004,4 30 0 0,0
08.11.2019 00:00:00 7,5 6,1 6,6 6,6 8,2 10,8 9 5 19 10 S 1003,8 21 0 0,0
07.11.2019 23:00:00 8,0 6,1 7,5 7,0 8,3 10,8 9 5 16 8 SSE 1003,5 23 0 0,0
07.11.2019 22:00:00 8,4 6,2 7,2 7,5 8,3 10,8 10 5 19 10 SSE 1002,8 26 0 0,0
07.11.2019 21:00:00 8,8 6,6 8,1 7,6 8,3 10,8 11 6 20 11 SSE 1002,4 25 0 0,0
07.11.2019 20:00:00 8,7 7,3 8,0 7,6 8,3 10,8 12 6 18 10 ESE 1002,1 13 0 0,0
07.11.2019 19:00:00 8,4 7,5 7,8 7,5 8,4 10,8 13 7 19 10 SE 1002,3 8 0 0,0
07.11.2019 18:00:00 8,1 7,7 7,4 7,4 8,5 10,8 9 5 14 8 SE 1002,2 4,1 0 0,0
07.11.2019 17:00:00 8,1 7,6 7,2 7,7 8,5 10,8 9 5 14 7 ESE 1002,0 3,8 0 0,0
07.11.2019 16:00:00 8,5 7,7 7,6 8,7 8,5 10,8 6 4 12 7 E 1002,0 4,5 0 0,0
07.11.2019 15:00:00 8,9 7,7 9,2 9,1 8,3 10,9 6 4 20 11 SE 1002,0 7 0 0,0
07.11.2019 14:00:00 8,3 7,4 8,8 8,7 8,1 10,9 14 7 21 11 SE 1001,9 6 0 0,0
07.11.2019 13:00:00 7,5 6,8 7,8 8,5 8,0 10,9 10 6 16 9 ESE 1002,0 4,8 0 0,0
07.11.2019 12:00:00 6,7 6,1 7,4 8,4 7,8 10,9 9 5 15 8 E 1002,5 6 0 0,0
07.11.2019 11:00:00 5,8 5,2 6,4 7,7 7,7 10,9 8 5 12 7 E 1003,0 6 0 0,0
07.11.2019 10:00:00 5,0 4,7 5,6 7,0 7,6 10,9 6 3 14 7 ESE 1003,1 3,5 0 0,0
07.11.2019 09:00:00 4,7 4,6 5,1 6,4 7,6 10,9 9 5 12 6 E 1003,1 3,6 0 0,0
07.11.2019 08:00:00 4,4 4,2 4,7 6,1 7,6 10,9 6 3 10 6 ESE 1003,3 1,1 0 0,0
07.11.2019 07:00:00 4,3 4,1 4,6 6,1 7,7 10,9 4 2 7 4 SE 1002,8 0,3 0 0,0
07.11.2019 06:00:00 4,2 4,2 4,5 6,0 7,7 10,9 4 2 9 5 SE 1002,8 0,2 0 0,0
07.11.2019 05:00:00 3,9 3,8 4,2 5,9 7,8 10,9 5 3 8 5 ESE 1002,9 0,1 0 0,0
07.11.2019 04:00:00 4,2 4,0 4,2 5,8 7,9 10,9 5 3 7 4 ESE 1002,9 0,1 0 0,0
07.11.2019 03:00:00 4,7 4,3 4,4 6,0 8,0 10,9 3 2 14 8 SSE 1002,9 2,6 0 0,0
07.11.2019 02:00:00 5,3 4,9 5,3 6,1 8,1 10,9 9 5 19 10 SW 1003,1 6 0 0,0
07.11.2019 01:00:00 5,5 5,1 5,2 5,8 8,2 10,9 13 7 18 10 WSW 1003,1 7 0 0,0
07.11.2019 00:00:00 5,2 5,0 4,7 5,7 8,4 10,9 7 4 11 6 SW 1003,1 12 0 0,0
06.11.2019 23:00:00 5,0 4,7 3,6 6,1 8,6 10,9 6 3 10 5 SSW 1003,0 12 0 0,0
06.11.2019 22:00:00 5,4 5,0 5,1 6,6 8,8 10,9 5 3 10 6 SSW 1003,0 14 0 0,0
06.11.2019 21:00:00 5,7 5,2 5,2 6,8 9,0 10,9 8 4 12 6 SW 1002,8 16 0 0,0
06.11.2019 20:00:00 6,0 5,4 5,5 7,2 9,1 10,9 9 5 13 7 W 1002,4 41 0 0,0
06.11.2019 19:00:00 6,5 5,9 6,1 7,9 9,3 10,9 9 5 18 10 WSW 1002,1 42 0 0,0
06.11.2019 18:00:00 6,9 6,1 6,7 8,3 9,4 10,9 11 6 25 13 W 1001,9 70 0 0,2
06.11.2019 17:00:00 7,5 7,0 7,5 8,8 9,4 10,9 6 3 8 4 W 1001,5 3,8 0 0,1

tt = temperature
td = dewpoint
tt 5cm = temperature 5cm
tt -5cm = temperature -5cm
tt -20cm = temperature -20cm
tt -100cm = temperature -100cm
ff = wind speed
fx = gusts
dd = wind direction
ppp = reduced air pressure
vv = visibility
sd = sunshine duration
rr = precipitation

Next stations